the time You need

,

KS Athlete ()

Nazionalitá:   --

Sesso:   --

Pettorale:   --

Categoria:   --

Società:   --

POS. ASSOLUTA

°

Gara

Granfondo Terre dei Varano

Percorso

152.3 Km - LUNGO

Atleti arrivati

356

DETTAGLIO PRESTAZIONE

POSIZIONE ASSOLUTA °
TEMPO TOTALE
MEDIA Km/h
CATEGORIA
POSIZIONE CATEGORIA °

Intermedi

PRESTAZIONE A CONFRONTO
ASSOLUTO

NOME Giampaolo Busbani
° POSIZIONE ASSOLUTA
TEMPO ASSOLUTO 04:35:35.01
Km/h MEDIA PRIMO ASSOLUTO 33,09 Km/h

PRESTAZIONE A CONFRONTO
CATEGORIA

NOME Giampaolo Busbani
° POSIZIONE CATEGORIA
TEMPO PRIMO DI CATEGORIA 04:35:35.01
Km/h MEDIA PRIMO CATEGORIA 33,09 Km/h


 
Grafico Edizioni Precedenti
Risulta una sola edizione, grafico non disponibile.
 
Pos Anno Cat PosCat Sex PosSex Tempo Media RealTime
 

 
Team
Pos Atleta Cat PosCat Tempo Media RealTime
BUSBANI GIAMPAOLO VET1 1 04:35:35.01 33,09 04:35:35.01
MENCARONI LUCIANO VET1 2 04:36:15.06 33,01 04:36:01.01
FEDELE MANUEL SEN1 1 04:39:17.29 32,66 04:39:06.06
MURARO CARLO SEN2 1 04:39:20.41 32,65 04:39:12.12
FRATERNALI MATTIA JUN 1 04:39:24.08 32,64 04:39:13.13
POETA EMANUELE SEN1 2 04:39:33.25 32,62 04:39:24.24
PINTON CRISTIAN SEN1 3 04:39:33.58 32,62 04:39:22.38
BERTUOLA ALESSANDRO SEN2 2 04:39:34.25 32,62 04:39:25.25
IARLORI MARCO JUN 2 04:42:03.79 32,33 04:41:55.49
10° VERLICCHI GIULIO SEN2 3 04:43:11.08 32,21 04:42:58.58
11° NANNI ALESSANDRO SEN1 4 04:45:23.34 31,96 04:45:12.12
12° BOLLETTA EMILIANO VET1 3 04:46:37.75 31,82 04:46:28.28
13° MINUZZO PAOLO SEN1 5 04:49:31.30 31,50 04:49:24.30
14° REZZANI MICHELE VET1 4 04:50:13.46 31,42 04:50:03.06
15° BARCHI CHRISTIAN JUN 3 04:54:02.68 31,02 04:53:59.48
16° BRACONI LORENZO SEN2 4 04:55:41.48 30,84 04:55:30.48
17° SUARDI MASSIMO GEN1 1 04:55:42.33 30,84 04:55:31.31
18° PESCIAROLI CESARE VET1 5 04:55:53.13 30,82 04:55:48.48
19° CAPUTI LUIGI SEN2 5 04:55:53.76 30,82 04:55:25.56
20° MAZZI SIMONE VET1 6 04:56:02.26 30,81 04:55:55.55
21° RINALDI LUCIANO VET1 7 04:56:42.82 30,74 04:56:35.32
22° DI LEONARDO PAOLO SEN1 6 04:56:44.43 30,73 04:56:32.32
23° SIMONESCHI STEFANO VET1 8 04:56:51.18 30,72 04:56:39.39
24° PESCIAIOLI FRANCESCO SEN1 7 04:57:07.03 30,70 04:56:57.57
25° DI FIORE EMANUELE SEN2 6 04:57:07.12 30,70 04:56:54.54
26° ZANOTTI GIANLUCA JUN 4 04:59:16.12 30,47 04:59:11.11
27° PRESTA LEONARDO JUN 5 04:59:28.76 30,45 04:58:46.46
28° CARIAGA MIKHAIL JOSEPH SEN1 8 04:59:30.03 30,45 04:59:24.24
29° BOSI MASSIMO VET2 1 04:59:45.01 30,43 04:59:41.41
30° SPOLETINI MASSIMO GEN1 2 04:59:53.94 30,41 04:59:49.24
31° SPACCIA VALENTINO JUN 6 04:59:54.38 30,41 04:59:51.51
32° CENCI LUCA SEN2 7 05:00:23.87 30,36 05:00:16.67
33° BARDELLI REMO VET2 2 05:00:41.77 30,33 05:00:29.67
34° MONTANARI DAVIDE VET1 9 05:00:42.65 30,33 05:00:29.45
35° LENARDUZZI GIULIANO VET2 3 05:01:03.62 30,29 05:00:54.32
36° GIACINTI UMBRO VET2 4 05:01:03.90 30,29 05:00:51.40
37° ALESSANDRELLI LUCA VET2 5 05:01:11.21 30,28 05:01:00.00
38° COLOMBO STEFANO SEN1 9 05:01:15.53 30,27 05:01:12.12
39° ORAZI JURI SEN1 10 05:01:22.22 30,26 05:01:14.02
40° BONGIOVANNI COSIMO JUN 7 05:01:23.21 30,26 05:01:04.01
41° ROSATI GIUSEPPE GEN1 3 05:01:23.40 30,26 05:01:17.17
42° BERARDI GIANCARLO GEN1 4 05:01:26.85 30,26 05:01:12.15
43° PAUPINI FRANCESCO SEN2 8 05:01:29.37 30,25 05:00:47.37
44° CIRRI MATTEO JUN 8 05:01:30.84 30,25 05:01:13.44
45° SCARPELLINI DANIELE SEN2 9 05:01:34.67 30,24 05:01:31.27
46° GRANDI ANTONIO VET2 6 05:01:39.86 30,23 05:01:23.66
47° CODINI JURI VET1 10 05:01:48.00 30,22 05:01:14.14
48° BOSCHETTI ALESSANDRO VET1 11 05:01:51.56 30,21 05:01:39.39
49° RIDOLFI MICHELE GEN2 1 05:01:54.70 30,21 05:01:50.00
50° CANFORA VINCENZO SEN1 11 05:04:29.72 29,95 05:04:12.12
51° CRINELLA LORIS VET1 12 05:04:31.46 29,95 05:04:25.26
52° MONTI ALESSANDRO SEN1 12 05:04:31.78 29,95 05:04:19.18
53° SPITONI FRANCESCO SEN2 10 05:04:37.19 29,94 05:04:28.19
54° BRAGAGNA GIAN LUCA VET1 13 05:04:37.84 29,94 05:04:19.74
55° MAGNANI VALERIO GEN2 2 05:04:44.49 29,93 05:04:29.29
56° SAMA FEDERICO SEN2 11 05:04:49.13 29,92 05:04:35.35
57° RICCIONI GIOVANNI GEN2 3 05:05:05.24 29,89 05:05:00.00
58° MONTALTI SILVIO VET1 14 05:05:20.00 29,87 05:05:00.00
59° DONATI MATTEO SEN2 12 05:05:35.79 29,84 05:05:29.09
60° BURINI MATIA JUN 9 05:05:54.62 29,81 05:05:10.52
61° MARSILII ALESSANDRO VET1 15 05:06:07.93 29,79 05:05:58.63
62° SBRIGHI MATTEO VET1 16 05:06:14.29 29,78 05:06:12.12
63° CIMARELLI MAURO GEN1 5 05:06:52.20 29,72 05:06:11.10
64° DE GASPERI ROBERTO JUN 10 05:08:40.35 29,55 05:08:18.18
65° VIANELLI FILIPPO SEN2 13 05:09:04.04 29,51 05:08:47.47
66° BARBAROSSA ALESSANDRO SEN1 13 05:09:16.11 29,49 05:09:01.01
67° PATANE“ DANIELE JUN 11 05:09:18.01 29,49 05:08:54.54
68° GIACOMETTI FABIO VET1 17 05:10:05.79 29,41 05:09:49.49
69° MASCI MARCO SEN2 14 05:10:13.61 29,40 05:09:56.56
70° SICILIA ANDREA VET1 18 05:11:41.09 29,26 05:11:27.09
71° GUSTINICCHI FRANCESCO SEN1 14 05:12:02.76 29,23 05:11:55.16
72° LANCIONI BARBARA DNA 1 05:12:03.89 29,23 05:11:59.89
73° MICHETTI BERNARDINO VET2 7 05:12:08.09 29,22 05:11:41.41
74° INNOCENZI MARCELLO GEN2 4 05:12:10.82 29,22 05:12:04.32
75° NICOLETTO GIAN CARLO VET2 8 05:12:11.36 29,21 05:11:43.43
76° MORIGI STEFANO VET2 9 05:12:16.20 29,21 05:12:04.04
77° SOCCI FAUSTINO GEN2 5 05:12:19.13 29,20 05:12:13.13
78° SPALLETTI DANIELE VET2 10 05:12:34.93 29,18 05:12:10.13
79° BELLUCCI MATTEO SEN2 15 05:12:35.12 29,18 05:11:56.56
80° BUDA FABIO JUN 12 05:12:55.88 29,15 05:12:51.88
81° JAJANI FRANCESCO VET1 19 05:12:59.96 29,14 05:12:57.86
82° PAZZAGLINI ALESSANDRO SEN2 16 05:14:00.84 29,04 05:13:52.52
83° CAIRO ELENA DNA 2 05:14:00.85 29,04 05:13:55.65
84° SORICHETTI PAOLO VET2 11 05:15:23.91 28,92 05:15:08.31
85° POMPA DOMENICO JUN 13 05:16:15.01 28,84 05:16:05.05
86° CICULI MAURO GEN1 6 05:16:55.40 28,78 05:16:26.40
87° SAPIGNI ANDREA VET2 12 05:16:58.89 28,77 05:16:44.79
88° PRINCIPI LUCA SEN2 17 05:17:17.11 28,74 05:16:46.46
89° ANTONELLI CRISTIANO SEN2 18 05:17:24.67 28,73 05:16:56.56
90° ZUCCHINI FABIO VET1 20 05:17:59.51 28,68 05:17:43.21
91° ZANOTTI MATTEO SEN1 15 05:18:10.93 28,66 05:17:56.23
92° CASTELLANI MARCO VET2 13 05:18:11.08 28,66 05:17:49.49
93° BUGLI MANUELA DNB 1 05:18:11.10 28,66 05:18:07.07
94° DELLA BARTOLA FABIO SEN2 19 05:18:12.40 28,66 05:18:03.40
95° CATONE MAURIZIO FABIO SEN2 20 05:18:14.88 28,66 05:17:59.18
96° MANGIATERRA DANIELE JUN 14 05:18:17.02 28,65 05:17:26.26
97° CARDELLA DAVID SEN2 21 05:18:17.03 28,65 05:17:29.29
98° GIOACCHINI MATTEO SEN2 22 05:18:17.04 28,65 05:18:11.11
99° PIERINI ETTORE VET2 14 05:18:17.34 28,65 05:18:08.04
100° PASCUCCI PIERPAOLO VET1 21 05:18:17.35 28,65 05:18:04.04
 

ELENCO GARE VISUALIZZAZIONE ESTESA

Data
Evento
Posizione
Punti
Km
Sport